Weather History for KSYR - February, 2013

Change the Weather History Date:

Thursday, February 28, 2013

  Actual Average Record
Temperature  
Mean Temperature 37 °F 29 °F  
Max Temperature 40 °F 37 °F 66 °F (1954)
Min Temperature 34 °F 20 °F -4 °F (2015)
Degree Days  
Heating Degree Days 28 36  
Month to date heating degree days 1104 1095  
Since 1 July heating degree days 4371 4831  
Cooling Degree Days 0 0  
Month to date cooling degree days 0 0  
Year to date cooling degree days 0 0  
Moisture  
Dew Point 31 °F    
Average Humidity 83    
Maximum Humidity 96    
Minimum Humidity 70    
Precipitation  
Precipitation 0.06 in 0.09 in 0.71 in (1958)
Month to date precipitation 2.71 2.07  
Year to date precipitation 4.42 4.57  
Snow  
Snow T in 0.80 in 5.30 in (2006)
Month to date snowfall 36.4 25.3  
Since 1 July snowfall 83.2 101.9  
Snow Depth T in    
Sea Level Pressure  
Sea Level Pressure 29.59 in    
Wind  
Wind Speed 5 mph (WSW)    
Max Wind Speed 14 mph    
Max Gust Speed 18 mph    
Visibility 9 miles    
Events Rain , Snow    
T = Trace of Precipitation, MM = Missing Value Source: NWS Daily Summary

Daily Weather History Graph

Daily Weather History Graph

Search for Another Location

Airport or City:

Trip Planner

Search our weather history database for the weather conditions in past years. The results will help you decide how hot, cold, wet, or windy it might be!

Date:

Astronomy

Feb. 28, 2013 Rise Set
Actual Time 6:41 AM EST 5:52 PM EST
Civil Twilight 6:13 AM EST 6:21 PM EST
Nautical Twilight 5:40 AM EST 6:54 PM EST
Astronomical Twilight 5:07 AM EST 7:27 PM EST
Moon 9:24 PM EST (2/28) 7:43 AM EST (2/28)
Length of Visible Light 12h 08m
Length of Day
11h 10m
Waning Gibbous, 91% of the Moon is Illuminated
Feb 28
Waning Gibbous
Mar 4
Last Quarter
Mar 11
New
Mar 19
First Quarter
Mar 27
Full

Hourly Weather History & Observations

Time (EST) Temp. Windchill Dew Point Humidity Pressure Visibility Wind Dir Wind Speed Gust Speed Precip Events Conditions
12:54 AM 35.1 °F 29.3 °F 32.0 °F 89% 29.55 in 9.0 mi WSW 6.9 mph - 0.02 in Rain , Snow Light Rain
1:54 AM 36.0 °F 29.0 °F 32.0 °F 86% 29.55 in 10.0 mi WSW 9.2 mph - 0.01 in Rain Light Rain
2:54 AM 36.0 °F 28.0 °F 32.0 °F 86% 29.55 in 10.0 mi SW 11.5 mph - 0.00 in Rain Light Rain
3:54 AM 35.1 °F 29.3 °F 30.9 °F 85% 29.54 in 10.0 mi SW 6.9 mph - 0.00 in   Overcast
4:05 AM 35.6 °F 29.2 °F 30.2 °F 81% 29.54 in 10.0 mi SW 8.1 mph - N/A   Overcast
4:54 AM 35.1 °F 28.6 °F 30.9 °F 85% 29.55 in 10.0 mi SW 8.1 mph - N/A   Overcast
5:54 AM 36.0 °F 31.1 °F 30.9 °F 82% 29.56 in 10.0 mi SSW 5.8 mph - N/A   Overcast
6:54 AM 36.0 °F 31.1 °F 30.9 °F 82% 29.57 in 10.0 mi SW 5.8 mph - 0.00 in Rain Light Rain
7:07 AM 35.6 °F - 30.2 °F 81% 29.57 in 9.0 mi North - - 0.00 in Rain Light Rain
7:45 AM 35.6 °F 32.8 °F 30.2 °F 81% 29.58 in 10.0 mi WNW 3.5 mph - 0.00 in   Overcast
7:52 AM 35.6 °F 32.8 °F 32.0 °F 87% 29.58 in 10.0 mi WNW 3.5 mph - 0.00 in   Overcast
7:54 AM 36.0 °F - 32.0 °F 86% 29.58 in 10.0 mi Calm Calm - 0.00 in   Overcast
8:30 AM 35.6 °F - 32.0 °F 87% 29.58 in 10.0 mi Calm Calm - 0.00 in   Light Drizzle
8:54 AM 36.0 °F 33.3 °F 32.0 °F 86% 29.59 in 8.0 mi SW 3.5 mph - 0.00 in   Light Drizzle
9:45 AM 37.4 °F 32.8 °F 30.2 °F 75% 29.58 in 10.0 mi SW 5.8 mph - 0.00 in Rain Light Rain
9:50 AM 37.4 °F 32.8 °F 30.2 °F 75% 29.58 in 10.0 mi SW 5.8 mph - 0.00 in Rain Light Rain
9:54 AM 37.0 °F 31.6 °F 30.9 °F 79% 29.58 in 10.0 mi SSW 6.9 mph - 0.00 in Rain Light Rain
10:06 AM 37.4 °F 32.1 °F 30.2 °F 75% 29.58 in 10.0 mi SW 6.9 mph - 0.00 in   Light Drizzle
10:49 AM 37.4 °F 32.1 °F 30.2 °F 75% 29.58 in 10.0 mi West 6.9 mph - 0.00 in   Light Drizzle
10:54 AM 37.0 °F 33.3 °F 30.9 °F 79% 29.59 in 9.0 mi West 4.6 mph - 0.00 in   Light Drizzle
11:11 AM 37.4 °F 32.8 °F 30.2 °F 75% 29.59 in 10.0 mi West 5.8 mph - 0.00 in   Light Drizzle
11:35 AM 37.4 °F 32.1 °F 30.2 °F 75% 29.59 in 9.0 mi West 6.9 mph - 0.00 in Rain , Snow Light Rain
11:46 AM 37.4 °F - 32.0 °F 81% 29.59 in 10.0 mi Calm Calm - 0.00 in Rain Light Rain
11:54 AM 37.0 °F - 32.0 °F 82% 29.59 in 10.0 mi Calm Calm - 0.00 in Rain Light Rain
12:54 PM 37.9 °F - 32.0 °F 79% 29.57 in 10.0 mi Calm Calm - 0.01 in   Overcast
1:42 PM 37.4 °F 33.8 °F 33.8 °F 87% 29.57 in 10.0 mi SE 4.6 mph - N/A   Overcast
1:49 PM 37.4 °F 34.9 °F 32.0 °F 81% 29.57 in 10.0 mi SSE 3.5 mph - N/A   Overcast
1:54 PM 37.9 °F 34.4 °F 33.1 °F 83% 29.57 in 10.0 mi SE 4.6 mph - N/A   Overcast
2:00 PM 37.4 °F 34.9 °F 33.8 °F 87% 29.57 in 10.0 mi SSE 3.5 mph - N/A   Overcast
2:29 PM 37.4 °F 34.9 °F 32.0 °F 81% 29.57 in 4.0 mi WSW 3.5 mph - 0.00 in Rain Light Rain
2:32 PM 37.4 °F 32.1 °F 32.0 °F 81% 29.57 in 2.5 mi WSW 6.9 mph - 0.00 in Rain Light Rain
2:42 PM 35.6 °F 32.8 °F 32.0 °F 87% 29.57 in 3.0 mi SSE 3.5 mph - 0.02 in Rain Light Rain
2:47 PM 37.4 °F - 32.0 °F 81% 29.57 in 6.0 mi Calm Calm - 0.02 in Rain Light Rain
2:54 PM 37.0 °F - 32.0 °F 82% 29.58 in 10.0 mi Calm Calm - 0.02 in   Overcast
3:54 PM 39.0 °F 32.8 °F 30.9 °F 73% 29.58 in 10.0 mi WSW 9.2 mph - N/A   Overcast
4:40 PM 39.2 °F 34.2 °F 30.2 °F 70% 29.58 in 10.0 mi WSW 6.9 mph - N/A   Overcast
4:54 PM 39.0 °F 34.8 °F 30.0 °F 70% 29.59 in 10.0 mi West 5.8 mph - N/A   Overcast
5:54 PM 37.0 °F 34.5 °F 32.0 °F 82% 29.61 in 10.0 mi North 3.5 mph - N/A   Overcast
6:54 PM 36.0 °F 31.1 °F 30.0 °F 79% 29.63 in 10.0 mi NW 5.8 mph - 0.00 in   Overcast
7:28 PM 35.6 °F 31.7 °F 30.2 °F 81% 29.63 in 9.0 mi NW 4.6 mph - 0.00 in Snow Light Snow
7:54 PM 35.1 °F 32.2 °F 30.0 °F 82% 29.64 in 9.0 mi West 3.5 mph - 0.00 in Snow Light Snow
8:34 PM 35.6 °F 30.7 °F 30.2 °F 81% 29.64 in 10.0 mi West 5.8 mph - 0.00 in   Overcast
8:54 PM 35.1 °F 29.3 °F 30.9 °F 85% 29.65 in 10.0 mi West 6.9 mph - 0.00 in   Overcast
8:56 PM 35.6 °F 31.7 °F 30.2 °F 81% 29.64 in 10.0 mi West 4.6 mph - N/A   Overcast
9:18 PM 35.6 °F 30.7 °F 30.2 °F 81% 29.65 in 10.0 mi WSW 5.8 mph - N/A   Overcast
9:54 PM 35.1 °F 28.6 °F 30.9 °F 85% 29.65 in 9.0 mi WSW 8.1 mph - 0.00 in Rain , Snow Light Rain
10:54 PM 34.0 °F 28.0 °F 30.0 °F 85% 29.66 in 9.0 mi West 6.9 mph - 0.00 in Rain , Snow Light Rain
11:07 PM 33.8 °F 27.7 °F 30.2 °F 87% 29.65 in 10.0 mi West 6.9 mph - 0.00 in Rain , Snow Light Rain
11:34 PM 33.8 °F 26.4 °F 30.2 °F 87% 29.66 in 7.0 mi WNW 9.2 mph - 0.00 in Snow Light Drizzle
11:54 PM 34.0 °F 28.0 °F 30.9 °F 89% 29.67 in 6.0 mi WNW 6.9 mph - 0.00 in Snow Light Drizzle